Alice Springs, Australia

8:45 AM ACST on October 14, 2019 (GMT +0930)
Alice Springs

Weather History for YBAS - August, 2019

Change the Weather History Date:

Monday, August 12, 2019

  Actual Average Record
Temperature  
Mean Temperature 50 °F -  
Max Temperature 64 °F 75 °F 87 °F (2003)
Min Temperature 36 °F 46 °F 29 °F (2012)
Degree Days  
Heating Degree Days 15    
Moisture  
Dew Point 32 °F    
Average Humidity 45    
Maximum Humidity 70    
Minimum Humidity 21    
Precipitation  
Precipitation 0.00 in 0.01 in - ()
Sea Level Pressure  
Sea Level Pressure 30.26 in    
Wind  
Wind Speed 6 mph ()    
Max Wind Speed 14 mph    
Max Gust Speed -    
Visibility 6.2 miles    
Events      
Averages and records for this station are not official NWS values.
T = Trace of Precipitation, MM = Missing Value Source: Averaged Metar Reports

Daily Weather History Graph

Daily Weather History Graph

Search for Another Location

Airport or City:

Astronomy

Aug. 12, 2019 Rise Set
Actual Time 7:03 AM ACST 6:16 PM ACST
Civil Twilight 6:39 AM ACST 6:39 PM ACST
Nautical Twilight 6:12 AM ACST 7:06 PM ACST
Astronomical Twilight 5:46 AM ACST 7:33 PM ACST
Moon 3:27 PM ACST (8/12) 4:27 AM ACST (8/12)
Length of Visible Light 11h 59m
Length of Day
11h 12m
Waxing Gibbous, 89% of the Moon is Illuminated
Aug 12
Waxing Gibbous
Aug 15
Full
Aug 24
Last Quarter
Aug 30
New
Sep 6
First Quarter

Hourly Weather History & Observations

Time (ACST) Temp. Windchill Dew Point Humidity Pressure Visibility Wind Dir Wind Speed Gust Speed Precip Events Conditions
12:00 AM 44 °F - 27 °F 39% 30.25 in - NE 3.5 mph - -   Clear
12:00 AM 44.6 °F 43.1 °F 26.6 °F 49% 30.24 in 6.2 mi NE 3.5 mph - N/A   Unknown
12:30 AM 42 °F - 28 °F 46% 30.24 in - ENE 3.5 mph - -  
12:30 AM 42.8 °F 41.1 °F 28.4 °F 57% 30.24 in 6.2 mi ENE 3.5 mph - N/A   Unknown
1:30 AM 41.0 °F - 26.6 °F 57% 30.24 in 6.2 mi Calm Calm - N/A   Unknown
2:00 AM 39.2 °F - 24.8 °F 56% 30.24 in 6.2 mi Calm Calm - N/A   Unknown
2:30 AM 39 °F - 26 °F 47% 30.22 in - Calm Calm - -  
2:30 AM 39.2 °F - 24.8 °F 56% 30.21 in 6.2 mi Calm Calm - N/A   Unknown
3:00 AM 40 °F - 27 °F 47% 30.22 in - WNW 4.6 mph - -   Clear
3:30 AM 39 °F - 26 °F 48% 30.21 in - WNW 4.6 mph - -  
3:30 AM 39.2 °F 35.9 °F 26.6 °F 61% 30.21 in 6.2 mi WNW 4.6 mph - N/A   Unknown
4:00 AM 39.2 °F 35.0 °F 24.8 °F 56% 30.21 in 6.2 mi West 5.8 mph - N/A   Unknown
4:30 AM 37.4 °F 33.8 °F 26.6 °F 65% 30.24 in 6.2 mi WNW 4.6 mph - N/A   Unknown
5:00 AM 39.2 °F 35.0 °F 28.4 °F 65% 30.24 in 6.2 mi NW 5.8 mph - N/A   Unknown
5:30 AM 38 °F - 28 °F 55% 30.23 in - WNW 5.8 mph - -  
5:30 AM 37.4 °F 32.8 °F 28.4 °F 70% 30.24 in 6.2 mi WNW 5.8 mph - N/A   Unknown
6:00 AM 37 °F - 27 °F 57% 30.24 in - NW 3.5 mph - -   Clear
6:00 AM 37.4 °F 34.9 °F 26.6 °F 65% 30.24 in 6.2 mi NW 3.5 mph - N/A   Unknown
6:30 AM 36 °F - 27 °F 59% 30.25 in - NW 4.6 mph - -  
6:30 AM 37.4 °F 33.8 °F 26.6 °F 65% 30.27 in 6.2 mi NW 4.6 mph - N/A   Unknown
7:30 AM 37.4 °F 33.8 °F 28.4 °F 70% 30.30 in 6.2 mi NW 4.6 mph - N/A   Unknown
8:00 AM 42.8 °F - 32.0 °F 66% 30.30 in 6.2 mi WNW 2.3 mph - N/A   Unknown
8:30 AM 48.2 °F - 35.6 °F 62% 30.30 in 6.2 mi SSW 2.3 mph - N/A   Unknown
9:00 AM 53 °F - 38 °F 44% 30.31 in - ESE 9.2 mph - -   Clear
9:00 AM 53.6 °F - 37.4 °F 54% 30.33 in - ESE 9.2 mph - N/A   Clear
9:30 AM 54 °F - 38 °F 44% 30.32 in - ESE 13.8 mph - -  
9:30 AM 55.4 °F - 39.2 °F 54% 30.33 in - ESE 13.8 mph - N/A   Clear
10:00 AM 55.4 °F - 39.2 °F 54% 30.33 in - ESE 12.7 mph - N/A   Clear
10:30 AM 59.0 °F - 39.2 °F 48% 30.33 in - ESE 12.7 mph - N/A   Clear
11:00 AM 59.0 °F - 39.2 °F 48% 30.30 in 6.2 mi East 12.7 mph - N/A   Unknown
11:30 AM 59 °F - 38 °F 35% 30.30 in - ESE 12.7 mph - -  
11:30 AM 59.0 °F - 39.2 °F 48% 30.30 in 6.2 mi ESE 12.7 mph - N/A   Partly Cloudy
12:00 PM 59 °F - 37 °F 32% 30.29 in - SE 11.5 mph - -   Clear
12:00 PM 59.0 °F - 37.4 °F 45% 30.30 in 6.2 mi SE 11.5 mph - N/A   Unknown
12:30 PM 62 °F - 37 °F 28% 30.27 in - SSE 13.8 mph - -  
12:30 PM 62.6 °F - 37.4 °F 39% 30.27 in 6.2 mi SSE 13.8 mph - N/A   Unknown
1:00 PM 60.8 °F - 35.6 °F 39% 30.27 in 6.2 mi SSE 12.7 mph - N/A   Unknown
1:30 PM 62.6 °F - 33.8 °F 34% 30.24 in 6.2 mi SSE 12.7 mph - N/A   Unknown
2:30 PM 64 °F - 35 °F 22% 30.21 in - SE 11.5 mph - -  
2:30 PM 64.4 °F - 35.6 °F 34% 30.21 in 6.2 mi SE 11.5 mph - N/A   Unknown
3:00 PM 63 °F - 33 °F 21% 30.20 in - ESE 8.1 mph - -   Clear
3:00 PM 62.6 °F - 33.8 °F 34% 30.21 in 6.2 mi ESE 8.1 mph - N/A   Unknown
3:30 PM 64 °F - 34 °F 21% 30.20 in - SSE 10.4 mph - -  
3:30 PM 64.4 °F - 33.8 °F 32% 30.21 in 6.2 mi SSE 10.4 mph - N/A   Unknown
4:00 PM 64.4 °F - 33.8 °F 32% 30.21 in 6.2 mi SE 10.4 mph - N/A   Unknown
4:30 PM 64.4 °F - 32.0 °F 30% 30.21 in 6.2 mi SE 11.5 mph - N/A   Unknown
5:00 PM 62.6 °F - 32.0 °F 32% 30.21 in 6.2 mi SE 10.4 mph - N/A   Unknown
5:30 PM 62.6 °F - 32.0 °F 32% 30.21 in 6.2 mi SE 11.5 mph - N/A   Unknown
6:00 PM 61 °F - 32 °F 22% 30.21 in - SE 10.4 mph - -   Clear
6:00 PM 60.8 °F - 32.0 °F 34% 30.21 in 6.2 mi SE 10.4 mph - N/A   Unknown
6:30 PM 60 °F - 31 °F 22% 30.22 in - SE 8.1 mph - -  
6:30 PM 59.0 °F - 32.0 °F 36% 30.24 in 6.2 mi SE 8.1 mph - N/A   Unknown
7:00 PM 57.2 °F - 32.0 °F 38% 30.24 in 6.2 mi SE 6.9 mph - N/A   Unknown
7:30 PM 55.4 °F - 30.2 °F 38% 30.24 in 6.2 mi SE 6.9 mph - N/A   Unknown
8:00 PM 53.6 °F - 32.0 °F 44% 30.27 in 6.2 mi SE 6.9 mph - N/A   Unknown
8:30 PM 52 °F - 31 °F 33% 30.27 in - SE 5.8 mph - -  
8:30 PM 51.8 °F - 32.0 °F 47% 30.27 in 6.2 mi SE 5.8 mph - N/A   Unknown
9:00 PM 51 °F - 31 °F 35% 30.28 in - SE 4.6 mph - -   Clear
9:00 PM 51.8 °F - 32.0 °F 47% 30.30 in 6.2 mi SE 4.6 mph - N/A   Unknown
9:30 PM 50 °F - 32 °F 37% 30.28 in - SE 5.8 mph - -  
9:30 PM 50.0 °F - 32.0 °F 50% 30.30 in 6.2 mi SE 5.8 mph - N/A   Unknown
10:00 PM 48.2 °F - 32.0 °F 54% 30.30 in 6.2 mi SSE 1.2 mph - N/A   Unknown
10:30 PM 46.4 °F - 30.2 °F 53% 30.30 in 6.2 mi Calm Calm - N/A   Unknown
11:00 PM 44.6 °F - 28.4 °F 53% 30.30 in 6.2 mi South 2.3 mph - N/A   Unknown
11:30 PM 42 °F - 29 °F 48% 30.28 in - Calm Calm - -  
11:30 PM 42.8 °F - 28.4 °F 57% 30.30 in 6.2 mi Calm Calm - N/A   Unknown